Hourly Data Report for September 02, 2017

All times are specified in Local Standard Time (LST). Add 1 hour to adjust for Daylight Saving Time where and when it is observed.

ST. PETERS
PRINCE EDWARD ISLAND

46°27'01.000" N
62°34'33.000" W
29.70 m
8300562
71310
ZSP

Download Data

Hourly Data (September 2017)
Hourly Data Report for September 2, 2017
Temp Definition
°C
Dew Point Temp Definition
°C
Rel Hum Definition
%
Wind Dir Definition
10's deg

Wind Spd Definition
km/h
Visibility Definition
km
Stn Press Definition
kPa
Hmdx Definition


Wind Chill Definition


Weather Definition


TIME
00:00 9.9 8.1 89 23 15   100.45     LegendNANA
01:00 10.5 9.3 92 26 16   100.45     LegendNANA
02:00 12.1 9.7 85 30 25   100.50     LegendNANA
03:00 11.7 9.8 89 29 25   100.57     LegendNANA
04:00 11.0 9.6 91 30 33   100.65     LegendNANA
05:00 11.3 9.0 86 30 27   100.74     LegendNANA
06:00 10.8 9.0 89 32 23   100.82     LegendNANA
07:00 10.5 7.7 83 31 26   100.93     LegendNANA
08:00 12.1 8.0 76 31 23   101.01     LegendNANA
09:00 12.3 7.3 72 32 24   101.08     LegendNANA
10:00 12.3 7.6 73 31 27   101.15     LegendNANA
11:00 11.7 8.3 79 31 27   101.23     LegendNANA
12:00 12.7 7.9 73 32 27   101.29     LegendNANA
13:00 12.8 8.4 74 31 26   101.35     LegendNANA
14:00 13.2 8.6 74 31 25   101.40     LegendNANA
15:00 12.9 7.6 70 31 21   101.47     LegendNANA
16:00 12.6 7.7 72 31 20   101.53     LegendNANA
17:00 13.0 7.2 68 30 17   101.59     LegendNANA
18:00 13.2 7.9 70 32 16   101.67     LegendNANA
19:00 13.1 8.3 73 31 13   101.74     LegendNANA
20:00 13.2 8.6 74 32 12   101.84     LegendNANA
21:00 12.5 8.6 77 32 9   101.89     LegendNANA
22:00 12.3 9.1 81 34 7   101.92     LegendNANA
23:00 10.7 8.0 84 30 3   101.97     LegendNANA

Notes on Data Quality.

Legend

  • E = Estimated
  • M = Missing
  • NA = Not Available
  • ‡ = Partner data that is not subject to review by the National Climate Archives
Date modified: